RH
54 56 58 62 68 69 66 64 63 64 65 67 67 68 72 75 76 75 72 69 68 63 58 52 47 43 37 36 47 56 48 48 77 64 50 63 92 100 84 85 93 99 100
51 56 60 63 67 71 72 73 74 72 71 71 73 74 75 78 78 76 72 67 65 64 64 61 60 57 57 54 44 41 40 49 54 64 53 48 84 98 91 92 95 91 100
61 63 65 65 65 66 68 69 71 74 74 75 76 79 81 80 77 75 72 67 65 64 68 73 75 75 75 74 70 64 50 48 46 51 52 48 86 100 94 84 84 89 98
61 64 66 67 68 68 70 70 72 74 76 78 81 83 85 82 76 76 72 70 83 70 72 71 73 80 77 74 77 66 55 49 44 45 47 50 86 92 84 76 75 77 90
58 64 67 67 67 70 75 76 76 77 83 89 90 88 87 80 75 77 77 98 98 83 85 89 92 94 97 95 68 50 53 53 48 46 50 56 59 86 92 74 70 88 100
59 62 65 67 70 74 78 83 84 83 84 89 90 90 87 82 84 89 97 99 93 86 94 98 96 96 97 92 51 49 50 50 49 50 47 55 55 58 72 86 70 73 81
79 79 79 78 79 79 76 78 84 88 90 91 93 92 91 94 100 100 99 98 96 97 96 94 95 96 96 94 69 52 49 49 46 43 42 44 50 50 62 77 79 68 70
80 81 83 84 83 82 80 80 90 94 94 93 96 98 99 100 99 99 99 98 98 97 97 96 96 90 93 92 77 56 50 46 43 42 41 38 40 54 64 66 68 59 88
96 87 85 82 81 84 82 93 96 96 99 100 100 100 100 99 98 97 96 98 98 96 96 95 91 38 73 90 67 53 67 85 94 94 92 57 54 62 69 57 64 80 80
98 98 95 91 94 97 99 100 99 100 100 100 100 99 99 98 100 99 98 97 96 95 96 96 85 73 93 80 58 66 88 99 76 68 85 85 86 83 77 64 65 43 68
99 95 93 90 97 99 99 100 100 100 99 99 98 100 100 99 99 98 98 97 96 95 94 92 90 100 98 53 55 71 75 81 77 71 63 54 44 38 55 84 92 75 39
99 99 99 96 97 99 100 100 100 99 99 100 100 100 100 99 97 97 97 97 96 95 90 86 97 97 98 100 85 88 75 71 74 78 77 69 61 59 60 57 56 55 59
98 98 100 100 100 100 99 99 99 100 99 100 98 99 100 98 98 96 97 96 96 95 95 93 99 99 99 98 99 97 72 76 79 79 86 89 74 70 68 66 64 57 54
99 100 100 100 100 99 98 98 98 98 98 97 97 98 99 100 98 95 96 96 96 96 99 100 96 94 90 100 98 73 73 73 75 77 78 81 89 82 77 74 76 64 57
100 100 99 100 98 99 98 96 95 95 92 92 95 94 96 97 96 93 96 88 74 83 93 99 98 93 97 100 90 82 81 85 76 76 74 73 82 88 88 88 82 82 63
100 100 99 98 99 98 97 100 100 98 97 98 98 96 96 96 96 96 95 84 73 80 87 95 98 93 96 97 90 89 86 88 87 83 78 70 69 73 72 70 66 74 64
99 98 98 99 98 100 99 96 100 100 100 97 97 96 96 95 96 99 100 98 98 83 80 90 91 92 96 94 91 89 93 93 83 76 81 78 72 66 60 65 65 67 63
97 96 95 95 96 97 97 95 90 96 95 97 97 96 96 96 95 96 100 99 98 88 75 77 88 93 95 96 97 94 89 86 85 82 76 75 73 68 63 64 66 67 69
97 98 97 98 97 96 97 97 95 95 95 96 97 96 96 95 95 95 99 89 86 83 68 66 74 81 84 91 90 85 82 81 78 78 82 77 73 71 70 66 66 65 66
99 99 99 97 99 99 98 98 98 98 98 98 96 94 94 97 98 99 89 82 83 85 72 58 66 74 76 78 82 87 80 80 80 75 72 80 77 74 71 71 70 69 71
98 100 98 97 96 95 95 95 94 95 96 97 96 96 94 88 93 95 95 92 87 75 73 87 88 87 90 93 92 84 78 66 72 74 71 69 76 80 77 76 76 76 77
98 100 98 95 95 96 96 93 94 95 95 95 96 97 96 91 87 90 95 95 92 90 67 89 86 89 89 84 80 79 77 58 65 73 78 79 73 73 74 78 79 79 81
100 94 98 98 95 96 95 93 92 93 94 94 94 96 97 96 96 93 92 86 50 78 82 73 85 84 84 80 71 61 54 57 65 73 73 79 75 78 75 73 82 88 87
98 95 94 99 100 97 93 93 93 91 90 93 95 95 93 94 92 93 89 71 94 73 67 68 64 63 69 64 58 63 64 70 71 73 74 75 87 87 76 78 82 87 88
99 100 99 100 100 96 97 96 92 86 81 78 79 82 82 82 79 71 65 78 90 87 80 73 63 60 59 59 62 68 76 78 86 93 95 96 93 81 83 85 85 85 86
100 100 100 100 99 98 96 94 93 90 86 84 83 84 84 80 77 71 84 83 68 78 86 78 76 75 72 73 77 78 84 93 94 95 95 94 89 90 90 83 83 82 79
Wind_Speed
11 11 11 13 15 16 17 18 21 22 21 21 21 21 20 17 15 13 11 10 10 9 8 9 9 8 9 11 13 15 15 14 12 7 18 16 15 11 11 11 10 11 11
9 9 9 9 10 12 15 17 18 19 20 22 22 22 20 18 15 13 12 12 12 10 9 8 9 9 10 10 10 12 12 12 15 21 20 16 16 15 13 12 11 10 12
6 5 6 7 8 9 10 12 14 16 18 19 21 23 22 20 17 14 13 12 11 11 10 10 8 6 6 5 6 10 11 12 14 20 15 18 18 18 15 12 11 12 13
5 6 7 7 8 10 11 11 12 12 14 17 20 22 22 20 18 16 15 13 9 9 9 10 8 5 3 4 8 11 14 17 18 25 21 19 18 19 15 14 11 10 10
7 8 9 9 10 11 11 12 12 12 11 12 15 17 20 19 20 20 19 12 12 11 8 6 5 5 5 8 9 6 12 16 19 20 17 14 14 18 16 13 11 12 12
8 10 12 12 12 10 9 9 9 10 11 12 13 16 17 19 19 17 12 15 14 11 8 6 4 3 3 4 6 7 9 15 20 16 13 13 15 18 17 18 16 9 4
10 13 14 13 10 8 8 10 8 8 8 10 12 14 15 15 13 12 13 15 15 11 9 7 6 4 4 4 5 6 8 10 13 14 16 16 18 21 19 16 17 12 7
7 9 9 9 9 10 10 9 6 6 7 10 11 12 14 11 11 11 13 14 11 9 9 9 6 6 5 7 7 8 7 7 7 8 10 12 12 19 17 16 17 14 15
5 4 6 7 8 7 8 6 6 6 8 8 9 12 12 13 11 12 14 13 12 10 8 7 6 6 7 8 10 15 15 18 15 15 13 10 14 16 14 18 18 16 6
4 5 4 4 4 5 6 5 5 7 8 8 9 9 10 14 12 13 15 14 13 12 9 7 6 7 8 10 15 17 20 18 12 16 18 20 16 14 14 15 14 11 10
1 2 1 2 3 5 5 6 6 7 8 8 9 10 9 10 15 12 11 13 14 15 13 11 9 7 8 10 12 15 17 16 17 20 23 22 20 15 11 14 9 5 8
3 4 4 4 4 5 6 6 7 8 10 11 11 11 11 12 10 7 8 10 12 14 15 13 13 9 10 11 13 14 16 17 17 18 19 21 22 23 23 22 18 15 13
4 4 6 6 7 6 7 9 10 10 11 13 13 14 12 10 10 7 6 9 11 12 14 15 14 12 13 13 14 14 15 16 17 18 18 18 18 19 19 20 19 18 18
6 6 6 8 8 7 8 9 9 11 12 13 15 15 14 14 14 12 12 9 9 11 17 17 17 18 16 17 15 12 13 13 15 17 16 16 16 16 15 14 15 15 18
8 8 8 10 11 11 9 8 7 9 10 14 15 17 16 15 16 12 10 10 14 17 19 18 21 18 13 17 14 13 12 13 14 15 14 14 13 15 13 12 11 8 14
9 10 12 12 12 11 10 8 4 3 6 6 7 11 13 10 10 12 11 12 13 15 17 18 18 16 16 16 15 13 12 12 12 12 13 12 12 12 11 10 9 11 13
11 11 12 13 14 13 12 12 12 7 5 4 6 7 9 10 10 12 12 13 14 15 13 15 16 16 15 13 15 15 14 12 11 10 12 12 11 10 9 10 11 14 13
10 10 13 13 14 13 13 13 13 15 13 10 8 8 8 10 11 12 13 14 13 8 8 12 14 16 15 16 16 15 13 12 11 11 11 12 11 10 10 10 11 12 10
10 11 12 13 13 13 12 12 13 12 12 12 11 8 9 11 12 11 13 13 13 8 8 11 15 16 16 16 14 12 11 12 10 10 11 12 12 11 9 9 9 8 8
11 12 12 14 13 13 12 12 11 10 11 12 16 14 14 15 17 18 14 9 8 9 8 11 15 14 13 12 13 13 11 12 11 10 10 11 12 10 9 9 8 9 8
12 12 12 13 12 12 12 11 10 9 9 12 16 16 17 17 18 16 15 11 6 7 9 9 10 11 12 13 14 15 14 13 13 12 10 11 11 11 10 9 8 7 7
12 13 12 12 12 12 12 11 10 9 9 10 13 16 16 14 13 11 11 8 6 8 11 9 9 11 11 12 13 14 14 13 13 13 12 12 11 10 9 9 9 8 7
12 12 12 11 11 12 11 10 10 9 9 10 12 13 13 14 12 10 8 5 5 11 11 7 8 8 8 8 9 11 11 12 12 12 14 14 12 10 9 10 10 9 9
12 13 12 11 12 13 11 11 10 10 10 11 12 12 11 10 9 8 8 9 8 8 8 8 7 6 8 8 10 9 9 7 9 11 12 12 11 11 10 10 10 10 9
12 13 13 12 13 14 12 11 10 9 9 9 10 10 9 8 8 8 9 11 10 8 7 6 6 6 7 7 8 9 9 9 9 11 12 12 11 11 11 10 11 11 10
10 11 10 11 12 12 12 11 11 10 9 9 9 8 8 10 9 10 9 8 8 8 6 5 6 6 8 9 9 9 10 10 10 11 11 12 13 12 12 11 12 11 10
Wind_Direction
249 263 270 273 272 270 265 262 259 263 264 262 254 247 241 237 233 231 228 225 212 207 197 184 171 165 165 163 166 177 171 158 128 125 149 157 153 158 140 134 130 114 93
263 272 274 279 279 270 267 270 271 271 270 267 260 247 238 233 230 228 220 206 196 193 185 176 158 157 153 147 150 150 155 165 144 139 149 153 163 161 151 144 141 128 109
268 267 275 287 295 290 284 284 281 275 269 267 258 246 236 230 221 212 208 198 190 185 185 185 175 173 161 177 188 183 156 153 157 150 145 155 153 160 159 155 154 142 112
292 298 297 306 306 302 297 292 287 278 271 265 258 249 241 224 210 203 194 183 193 197 191 183 180 197 222 223 206 185 144 141 147 151 145 151 157 162 167 154 146 154 145
325 322 321 322 315 310 307 304 302 297 287 276 255 247 233 217 203 192 185 197 189 194 184 181 194 212 223 202 237 196 170 155 154 150 147 156 161 168 177 170 145 140 128
328 324 322 319 316 317 323 321 309 302 288 266 248 233 216 204 198 183 217 189 185 176 165 151 138 122 200 220 241 219 202 178 168 162 166 167 174 178 175 172 163 148 136
338 325 320 316 311 317 327 322 309 282 246 228 220 213 206 193 207 216 199 186 175 173 170 177 159 152 165 182 207 201 196 187 187 186 185 183 177 183 175 170 175 171 143
320 318 318 316 315 321 313 306 276 239 223 209 204 207 196 202 199 199 185 176 172 178 186 183 178 172 195 195 174 147 147 150 163 185 188 179 176 172 173 176 174 158 141
343 349 331 327 307 302 293 267 248 235 215 202 195 187 189 172 194 191 183 182 180 171 170 155 155 171 176 175 154 139 129 102 98 100 98 138 149 164 166 161 147 142 127
1 350 324 314 295 273 257 244 242 222 199 189 179 187 187 177 194 197 196 182 162 151 149 144 150 139 153 157 160 152 134 131 126 111 112 121 135 154 170 175 165 158 133
293 254 239 266 272 241 224 219 200 185 176 170 170 177 184 195 178 203 212 182 169 156 152 158 144 158 147 141 158 159 142 140 129 115 109 108 107 108 138 171 179 180 150
208 208 195 201 194 200 203 175 178 180 171 165 162 154 162 166 169 187 209 193 179 167 163 156 145 158 148 148 149 146 141 144 136 125 119 111 107 102 101 105 109 105 102
217 206 204 186 178 183 184 177 169 178 171 160 155 152 159 159 157 162 170 176 178 175 169 156 147 145 145 133 133 139 148 147 139 131 125 125 123 118 116 111 104 96 91
212 202 192 184 174 175 180 186 180 180 175 172 167 160 161 161 157 153 160 178 173 160 151 152 148 150 146 138 140 139 144 144 145 137 131 126 136 137 132 127 117 105 93
200 193 192 191 185 175 186 190 195 207 207 189 188 179 167 163 173 181 184 175 164 164 160 154 154 155 153 151 147 148 152 151 149 143 139 131 129 150 149 151 139 123 112
191 191 194 184 178 176 173 155 180 209 205 213 211 200 192 181 170 188 190 171 167 161 157 159 157 162 160 158 161 157 159 162 160 152 143 138 143 148 146 147 149 150 126
199 191 187 180 175 169 168 157 138 142 138 136 155 161 175 166 161 169 174 168 162 167 164 169 169 171 170 172 174 175 172 169 164 158 163 160 151 141 150 154 149 150 133
190 185 185 178 176 173 172 163 158 155 144 144 150 150 155 157 160 162 162 156 159 170 173 183 184 182 185 183 180 177 172 168 169 168 168 171 170 161 152 153 157 156 151
174 176 175 174 174 172 168 167 170 167 160 163 156 153 151 156 159 155 170 184 185 180 187 190 188 187 188 187 185 182 183 179 179 180 178 179 178 175 164 154 154 161 161
166 163 166 166 164 160 160 165 168 170 177 179 176 168 161 165 166 171 187 184 201 208 199 192 186 188 191 188 187 189 188 187 185 184 183 185 185 187 180 175 176 178 185
153 153 161 162 161 161 161 161 160 163 168 177 183 179 176 177 184 191 199 199 205 202 188 182 194 200 203 205 201 198 198 196 196 195 188 185 190 191 190 189 189 191 189
152 156 159 162 163 165 165 164 164 163 163 167 170 175 186 190 189 193 199 209 227 217 196 198 211 201 203 203 205 205 204 205 204 204 202 195 190 190 197 201 199 196 200
150 156 158 162 167 166 169 173 175 178 176 173 173 178 185 190 193 201 212 231 186 177 183 193 184 192 199 207 210 212 210 215 221 217 205 202 201 207 214 212 209 208 211
156 162 163 160 172 175 174 174 174 176 180 183 184 185 190 197 202 201 201 187 172 174 192 198 192 193 200 196 194 203 211 213 209 208 204 206 215 220 216 214 219 221 223
161 164 170 171 172 177 177 178 176 174 174 176 184 195 198 194 184 175 172 182 184 185 178 177 187 196 199 202 203 207 209 202 204 204 211 219 222 221 222 228 225 222 224
175 172 170 176 180 181 184 184 186 188 191 192 194 197 202 200 195 189 183 188 196 195 192 195 197 201 206 210 211 206 208 217 216 219 223 224 222 223 231 228 225 229 231